Regional Weather Roundup
Issued by NWS Cleveland, OH

Home | Current Version | Previous Version | Graphics & Text | Print | Product List | Glossary On
Versions: 1 2 3 4 5 6 7 8 9 10 11 12 13 14 15 16 17 18 19 20 21 22 23 24 25 26 27 28 29 30 31 32 33 34 35 36 37 38 39 40 41 42 43 44 45 46 47 48 49 50
000
ASUS41 KCLE 271600
RWRCLE
OHIO REGIONAL WEATHER ROUNDUP
NATIONAL WEATHER SERVICE WILMINGTON, OH
1200 PM EDT FRI MAR 27 2015

NOTE: "FAIR" INDICATES FEW OR NO CLOUDS BELOW 12,000 FEET WITH NO
SIGNIFICANT WEATHER AND/OR OBSTRUCTIONS TO VISIBILITY.

OHZ001>008-015>018-024>027-034-035-043-044-271700-
   NORTHWEST OHIO

CITY           SKY/WX    TMP DP  RH WIND       PRES   REMARKS
DEFIANCE       CLOUDY    27  12  53 NW14      30.05S WCI  16
FINDLAY        CLOUDY    28  14  55 N16       30.01R WCI  16
TOLEDO EXPRESS CLOUDY    25  11  55 NW14      30.02F WCI  13
TOLEDO EXEC    CLOUDY    27  12  53 NW10      30.03S WCI  17
LIMA           CLOUDY    29  17  61 NW15G22   30.01R WCI  18
$$

OHZ009>014-019>023-028>033-038-089-271700-
   NORTHEAST OHIO

CITY           SKY/WX    TMP DP  RH WIND       PRES   REMARKS
CLE-HOPKINS    LGT SNOW  25  17  72 NW15      30.00S WCI  13
CLE-LAKEFRONT  FLURRIES  26  18  71 NW16      29.98R WCI  14
CUY CO. ARPT   FLURRIES  27  21  80 N14       29.96S WCI  15
LORAIN-ELYRIA  FLURRIES  25  18  74 NW9       29.99R WCI  15
ASHTABULA      LGT SNOW  26  20  77 W10       29.94R WCI  16
AKRON-CANTON   LGT SNOW  28  21  75 N12       29.93R WCI  18
WOOSTER        NOT AVBL
MANSFIELD      CLOUDY    27  18  69 NW12      29.95R WCI  17
YOUNGSTOWN     FLURRIES  29  21  72 NW14      29.90S WCI  18
$$

OHZ042-051>053-060>062-070>072-077>081-271700-
  SOUTHWEST OHIO

CITY           SKY/WX    TMP DP  RH WIND       PRES   REMARKS
CINC-COVINGTON PTSUNNY   35  23  61 N14       30.00S WCI  26
CINC-LUNKEN    CLOUDY    36  23  59 N12       30.03R
HAMILTON       CLOUDY    35  24  64 N10       30.03R WCI  27
DAYTON         NOT AVBL
WRIGHT-PAT AFB MIX PCPN  32  21  64 N15       30.01R WCI  22
DAYTON GENERAL CLOUDY    33  21  61 N12       30.00R WCI  24
WILMINGTON     CLOUDY    33  22  63 NW10      29.98R WCI  25
$$

OHZ036-037-039>041-045>050-054>059-063>069-073>076-082>088-271700-
  CENTRAL AND SOUTHEAST OHIO

CITY           SKY/WX    TMP DP  RH WIND       PRES   REMARKS
COLUMBUS       CLOUDY    32  22  66 NW13      29.97R WCI  22
OSU AIRPORT    CLOUDY    32  20  61 N13       29.97R WCI  22
BOLTON FIELD   CLOUDY    30  23  74 NW14      29.99R WCI  20
RICKENBACK AFB NOT AVBL
NEWARK         CLOUDY    34  21  59 NW8       29.96R WCI  27
MARION         CLOUDY    29  18  63 N17G24    29.98S WCI  17
LANCASTER      CLOUDY    34  23  64 N12       29.97R WCI  25
ZANESVILLE     CLOUDY    34  20  56 N9        29.94R WCI  27
NEW PHILLY     CLOUDY    35  23  61 NW9       29.94R WCI  28
$$


USA.gov is the U.S. government's official web portal to all federal, state and local government web resources and services.